This demonstration page uses our WeatherBlox Daily Observations layout. Learn more.

Left ArrowRight Arrow

Hourly Observations for February 24, 2017

Temp ( °F °C ) Dew Point ( °F °C ) Humidity (%) Winds ( mph kmh ) Pressure ( in mb ) Visibility ( mi km ) Precip ( " mm )
12:53 am 00:53 Cloudy 19 -7.2 17 -8.3 92 92 SE 5 7 30.14 1021 10 16 0.00 0.00
1:53 am 01:53 Cloudy 20 -6.7 18 -7.8 92 92 ENE 3 6 30.13 1020 10 16 0.00 0.00
2:53 am 02:53 Cloudy 19 -7.2 18 -7.8 96 96 Calm 30.12 1020 10 16 0.00 0.00
3:53 am 03:53 Cloudy 18 -7.8 16 -8.9 92 92 SSE 3 6 30.12 1020 10 16 0.00 0.00
4:53 am 04:53 Cloudy 20 -6.7 18 -7.8 92 92 NW 5 7 30.12 1020 10 16 0.00 0.00
5:53 am 05:53 Cloudy 18 -7.8 17 -8.3 96 96 WNW 6 9 30.12 1020 10 16 0.00 0.00
6:53 am 06:53 Mostly Cloudy 18 -7.8 17 -8.3 96 96 Calm 30.13 1020 10 16 0.00 0.00
7:08 am 07:08 Cloudy 14 -10 12 -11 92 92 SW 5 7 30.27 1025 9 14 0.00 0.00
7:20 am 07:20 Cloudy with Mist and Fog 12 -11 12 -11 100 100 SW 5 7 30.27 1025 2 3 0.00 0.00
7:25 am 07:25 Cloudy with Mist and Fog 13 -10.6 12 -11.1 96 96 WSW 5 7 30.27 1025 1 1 0.00 0.00
7:38 am 07:38 Mostly Cloudy with Freezing Fog 16 -9 14 -10 93 93 WSW 5 7 30.24 1024 0 0 0.00 0.00
7:53 am 07:53 Mostly Cloudy with Freezing Fog 17 -8.3 16 -8.9 95 95 SSW 5 7 30.15 1021 0 0 0.00 0.00
8:02 am 08:02 Mostly Cloudy with Freezing Fog 18 -8 18 -8 100 100 SSW 5 7 30.24 1024 1 1 0.00 0.00
8:33 am 08:33 Cloudy with Mist and Fog 20 -6.7 19 -7.2 96 96 SW 5 7 30.21 1023 2 2 0.00 0.00
8:37 am 08:37 Cloudy with Mist and Fog 20 -6.7 19 -7.2 96 96 SW 5 7 30.21 1023 3 5 0.00 0.00
8:53 am 08:53 Cloudy 21 -6.1 20 -6.7 96 96 SW 3 6 30.16 1021 9 14 0.00 0.00
9:32 am 09:32 Cloudy with Light Snow 21 -6 21 -6 100 100 Calm 30.21 1023 4 6 0.00 0.00
9:53 am 09:53 Cloudy with Light Snow 23 -5 22 -5.6 96 96 Calm 30.16 1021 2 3 0.00 0.03
10:03 am 10:03 Cloudy with Light Snow 23 -5 23 -5 100 100 Calm 30.21 1023 4 6 0.00 0.00
10:45 am 10:45 Cloudy with Light Snow 24 -4.4 23 -5 96 96 Calm 30.18 1022 2 3 0.01 0.25
10:53 am 10:53 Cloudy with Light Snow 25 -3.9 23 -5 92 92 Calm 30.16 1021 1 1 0.01 0.25
11:12 am 11:12 Cloudy with Light Snow 27 -3 25 -4 93 93 Calm 30.18 1022 2 2 0.00 0.00
11:20 am 11:20 Cloudy with Light Snow 27 -3 25 -4 93 93 Calm 30.18 1022 3 4 0.00 0.00
11:29 am 11:29 Cloudy with Light Snow 26 -3.3 25 -3.9 96 96 Calm 30.18 1022 4 6 0.01 0.25
11:53 am 11:53 Cloudy with Light Snow 26 -3.3 25 -3.9 96 96 Calm 30.17 1022 3 4 0.01 0.25
12:00 pm 12:00 Cloudy with Light Snow 27 -3 25 -4 93 93 Calm 30.18 1022 3 5 0.00 0.00
12:36 pm 12:36 Cloudy 29 -1.7 25 -3.9 85 85 Calm 30.15 1021 10 16 0.00 0.03
12:53 pm 12:53 Cloudy 29 -1.7 25 -3.9 85 85 Calm 30.16 1022 10 16 0.00 0.03
1:12 pm 13:12 Cloudy 28 -2 25 -4 86 86 WSW 3 6 30.18 1022 9 14 0.00 0.00
1:25 pm 13:25 Cloudy 28 -2.2 25 -3.9 88 88 Calm 30.18 1022 7 11 0.00 0.00
1:53 pm 13:53 Cloudy 28 -2.2 25 -3.9 88 88 Calm 30.16 1021 10 16 0.00 0.00
2:53 pm 14:53 Cloudy 30 -1.1 25 -3.9 82 82 Calm 30.16 1021 10 16 0.00 0.00
3:36 pm 15:36 Mostly Cloudy 31 -0.6 25 -3.9 79 79 SSW 5 7 30.15 1021 10 16 0.00 0.00
3:53 pm 15:53 Cloudy 30 -1.1 25 -3.9 82 82 Calm 30.16 1021 10 16 0.00 0.00
4:04 pm 16:04 Cloudy 30 -1 25 -4 80 80 SSE 6 9 30.15 1021 10 16 0.00 0.00
4:45 pm 16:45 Cloudy with Light Snow 29 -1.7 26 -3.3 89 89 NE 5 7 30.15 1021 8 13 0.00 0.03
4:53 pm 16:53 Cloudy 29 -1.7 27 -2.8 92 92 NE 6 9 30.15 1021 9 14 0.00 0.03
5:09 pm 17:09 Cloudy 28 -2.2 27 -2.8 96 96 E 3 6 30.18 1022 10 16 0.00 0.00
5:53 pm 17:53 Cloudy with Light Snow 28 -2.2 26 -3.3 92 92 SE 3 6 30.16 1022 8 13 0.00 0.03
6:03 pm 18:03 Cloudy with Light Snow 28 -2 27 -3 93 93 Calm 30.18 1022 6 10 0.00 0.00
6:10 pm 18:10 Cloudy with Light Snow 28 -2 27 -3 93 93 SW 3 6 30.18 1022 5 8 0.00 0.00
6:20 pm 18:20 Cloudy 28 -2 27 -3 93 93 WSW 8 13 30.18 1022 9 14 0.00 0.00
6:35 pm 18:35 Partly Cloudy 26 -3.3 24 -4.4 92 92 SW 9 15 30.18 1022 10 16 0.00 0.03
6:53 pm 18:53 Mostly Clear 26 -3.3 24 -4.4 92 92 WSW 9 15 30.18 1022 10 16 0.00 0.03
7:41 pm 19:41 Cloudy 24 -4.4 23 -5 96 96 WSW 5 7 30.18 1022 10 16 0.00 0.00
7:53 pm 19:53 Cloudy 25 -3.9 24 -4.4 96 96 W 3 6 30.18 1022 10 16 0.00 0.00
8:21 pm 20:21 Cloudy 25 -3.9 22 -5.6 88 88 NNW 5 7 30.18 1022 10 16 0.00 0.00
8:53 pm 20:53 Mostly Cloudy 22 -5.6 21 -6.1 96 96 Calm 30.18 1022 10 16 0.00 0.00
9:53 pm 21:53 Cloudy 25 -3.9 23 -5 92 92 NW 3 6 30.17 1022 10 16 0.00 0.00
10:32 pm 22:32 Mostly Cloudy 21 -6 19 -7 93 93 SW 9 15 30.21 1023 10 16 0.00 0.00
10:53 pm 22:53 Mostly Clear 20 -6.7 18 -7.8 92 92 SSW 10 17 30.16 1021 10 16 0.00 0.00
11:53 pm 23:53 Mostly Clear 17 -8.3 15 -9.4 92 92 SW 10 17 30.15 1021 10 16 0.00 0.00

Powered by AerisWeather